Погода в Уфимском

Россия / Республика Башкортостан     52°12′38″N   58°17′24″E
темп.,
°C
ветер,
м/с
пор.,
м/с
влажн.,
%
обл.,
%
осадки,
мм/ч
давл.,
гПа
погр.,
м
21 июня, пн
пн2123:00+19ссз613660 0.0 1017708
02:00+14ссз35600 0.0 101877
05:00+12с33690 0.0 102145
08:00+17с23540 0.0 1021420
11:00+21ссв35375 0.0 10211454
14:00+24ссв46305 0.0 10211971
17:00+25ссв36302 0.0 10212148
20:00+22вюв22455 0.0 102139
22 июня, вт
вт2223:00+16зсз11595 0.0 102211
02:00+15зсз226494 0.0 102214
05:00+15зсз22703 0.0 102227
08:00+20сз57660 0.0 1022390
11:00+26сз564810 0.0 10201594
14:00+28ссз563838 0.0 10192509
17:00+28сз684016 0.0 10191222
20:00+25ссз48565 0.0 1019345
23 июня, ср
ср2323:00+19сз4978100 0.0 1019187
02:00+18сз4108319 0.0 1019181
05:00+18сз412814 0.0 1018215
08:00+23сз5106275 0.3 1017497
11:00+28ссз77427 0.3 10172055
14:00+29ссз7839100 0.0 10162293
17:00+19в5787100 8.2 1019355
20:00+18в3382100 1.6 1018438
24 июня, чт
чт2423:00+16св119317 2.3 101811
02:00+15вюв119436 0.3 101811
05:00+16в1292100 0.5 1017130
08:00+16в3489100 0.3 1018308
11:00+17юв238029 0.3 1018392
14:00+22юв116190 0.1 10181221
17:00+22св225686 0.1 10171024
20:00+22всв11605 0.0 101614
25 июня, пт
пт2523:00+18юз22720 0.0 101611
02:00+16з22791 0.0 101714
05:00+16зсз33875 0.0 101635
08:00+21сз45685 0.0 1016324
11:00+25зсз33495 0.0 10151427
14:00+28зсз23394 0.0 10142092
17:00+30зсз343415 0.0 10122485
20:00+26сз48544 0.0 1012234